| time (UTC) | temp F | wind direction | speed MPH | gust MPH | rain 1hr in | rain 24hr in | rain mn in | humidity % | barometer mb |
| 20260504050752 | 47 | 235 | 0.0 | 200.0 | 0.00 | 0.00 | 0.00 | 79 | 818.2 |
| 20260504050251 | 47 | 214 | 0.0 | 200.0 | 0.00 | 0.00 | 0.00 | 78 | 806.7 |
| 20260504045750 | 47 | 211 | 0.0 | 200.0 | 0.00 | 0.00 | 0.00 | 78 | 823.5 |
| 20260504045249 | 47 | 241 | 0.0 | 200.0 | 0.00 | 0.00 | 0.00 | 77 | 858.8 |
| 20260504044748 | 47 | 233 | 0.0 | 200.0 | 0.00 | 0.00 | 0.00 | 76 | 855.2 |
| 20260504043731 | 47 | 242 | 0.0 | 200.0 | 0.00 | 0.00 | 0.00 | 76 | 873.6 |
| 20260504042724 | 47 | 243 | 0.0 | 200.0 | 0.00 | 0.00 | 0.00 | 76 | 872.6 |
| 20260504042223 | 47 | 233 | 0.0 | 200.0 | 0.00 | 0.00 | 0.00 | 76 | 858.6 |
| 20260504041722 | 47 | 247 | 0.0 | 200.0 | 0.00 | 0.00 | 0.00 | 75 | 854.2 |
| 20260504041221 | 47 | 226 | 0.0 | 200.0 | 0.00 | 0.00 | 0.00 | 75 | 838.6 |
| 20260504040719 | 47 | 227 | 0.0 | 200.0 | 0.00 | 0.00 | 0.00 | 74 | 850.5 |
| 20260504040218 | 48 | 238 | 0.0 | 200.0 | 0.00 | 0.00 | 0.00 | 74 | 859.3 |
| 20260504035717 | 48 | 238 | 0.0 | 200.0 | 0.00 | 0.00 | 0.00 | 72 | 857.2 |
| 20260504034155 | 48 | 236 | 0.0 | 200.0 | 0.00 | 0.00 | 0.00 | 71 | 854.3 |
| 20260504033148 | 49 | 236 | 0.0 | 200.0 | 0.00 | 0.00 | 0.00 | 70 | 854.5 |
| 20260504031625 | 49 | 236 | 0.0 | 200.0 | 0.00 | 0.00 | 0.00 | 68 | 854.4 |
| 20260504025602 | 50 | 236 | 0.0 | 200.0 | 0.00 | 0.00 | 0.00 | 67 | 854.3 |
| 20260504025101 | 50 | 236 | 0.0 | 200.0 | 0.00 | 0.00 | 0.00 | 67 | 854.2 |
| 20260504024601 | 50 | 236 | 0.0 | 200.0 | 0.00 | 0.00 | 0.00 | 67 | 854.2 |
| 20260504023549 | 50 | 236 | 0.0 | 200.0 | 0.00 | 0.00 | 0.00 | 65 | 854.3 |
| 20260504023048 | 51 | 236 | 0.0 | 200.0 | 0.00 | 0.00 | 0.00 | 64 | 854.4 |
| 20260504022547 | 51 | 236 | 0.0 | 200.0 | 0.00 | 0.00 | 0.00 | 63 | 854.4 |
| 20260504022046 | 51 | 236 | 0.0 | 200.0 | 0.00 | 0.00 | 0.00 | 63 | 854.1 |
| 20260504021545 | 51 | 236 | 0.0 | 200.0 | 0.00 | 0.00 | 0.00 | 63 | 854.3 |
| 20260504021044 | 51 | 236 | 0.0 | 200.0 | 0.00 | 0.00 | 0.00 | 61 | 854.3 |
| 20260504020543 | 52 | 236 | 0.0 | 200.0 | 0.00 | 0.00 | 0.00 | 59 | 854.2 |
| 20260504020042 | 52 | 236 | 0.0 | 200.0 | 0.00 | 0.00 | 0.00 | 58 | 854.2 |
| 20260504015542 | 52 | 236 | 0.0 | 200.0 | 0.00 | 0.00 | 0.00 | 57 | 854.1 |
| 20260504014527 | 52 | 236 | 0.0 | 200.0 | 0.00 | 0.00 | 0.00 | 57 | 853.8 |
| 20260504014026 | 53 | 236 | 0.0 | 200.0 | 0.00 | 0.00 | 0.00 | 56 | 853.6 |
| 20260504013525 | 53 | 236 | 0.0 | 200.0 | 0.00 | 0.00 | 0.00 | 54 | 853.8 |
| 20260504013024 | 53 | 236 | 0.0 | 200.0 | 0.00 | 0.00 | 0.00 | 52 | 853.9 |
| 20260504012523 | 54 | 236 | 0.0 | 200.0 | 0.00 | 0.00 | 0.00 | 53 | 854.0 |
| 20260504011517 | 54 | 236 | 0.0 | 200.0 | 0.00 | 0.00 | 0.00 | 52 | 854.0 |
| 20260504010501 | 55 | 236 | 0.0 | 200.0 | 0.00 | 0.00 | 0.00 | 50 | 855.2 |
| 20260504010000 | 55 | 236 | 0.0 | 200.0 | 0.00 | 0.00 | 0.00 | 48 | 855.9 |
| 20260504005500 | 55 | 236 | 0.0 | 200.0 | 0.00 | 0.00 | 0.00 | 48 | 857.7 |
| 20260504004959 | 56 | 236 | 0.0 | 200.0 | 0.00 | 0.00 | 0.00 | 47 | 860.9 |
| 20260504004458 | 56 | 236 | 0.0 | 200.0 | 0.00 | 0.00 | 0.00 | 47 | 866.8 |
| 20260504003451 | 57 | 248 | 0.0 | 200.0 | 0.00 | 0.00 | 0.00 | 45 | 890.8 |
| 20260504002950 | 57 | 248 | 0.0 | 200.0 | 0.00 | 0.00 | 0.00 | 44 | 890.2 |
| 20260504002449 | 58 | 248 | 0.0 | 200.0 | 0.00 | 0.00 | 0.00 | 43 | 889.9 |
| 20260504001948 | 58 | 248 | 0.0 | 200.0 | 0.00 | 0.00 | 0.00 | 42 | 889.8 |
| 20260504001447 | 59 | 248 | 0.0 | 200.0 | 0.00 | 0.00 | 0.00 | 41 | 889.2 |
| 20260504000431 | 60 | 248 | 0.0 | 200.0 | 0.00 | 0.00 | 0.00 | 39 | 886.0 |
| 20260503235929 | 60 | 248 | 0.0 | 200.0 | 0.00 | 0.00 | 0.00 | 38 | 882.4 |
| 20260503235428 | 60 | 247 | 0.0 | 200.0 | 0.00 | 0.00 | 0.00 | 38 | 875.7 |
| 20260503234927 | 61 | 245 | 0.0 | 200.0 | 0.00 | 0.00 | 0.00 | 37 | 862.5 |
| 20260503234426 | 61 | 236 | 0.0 | 200.0 | 0.00 | 0.00 | 0.00 | 36 | 855.2 |
| 20260503233409 | 61 | 218 | 0.0 | 200.0 | 0.00 | 0.00 | 0.00 | 34 | 795.4 |
| 20260503230834 | 62 | 244 | 0.0 | 200.0 | 0.00 | 0.00 | 0.00 | 33 | 834.0 |
| 20260503230333 | 62 | 236 | 0.0 | 200.0 | 0.00 | 0.00 | 0.00 | 33 | 808.1 |
| 20260503225832 | 62 | 216 | 0.0 | 200.0 | 0.00 | 0.00 | 0.00 | 32 | 802.8 |
| 20260503225331 | 62 | 231 | 0.0 | 200.0 | 0.00 | 0.00 | 0.00 | 32 | 801.0 |
| 20260503223759 | 63 | 240 | 0.0 | 200.0 | 0.00 | 0.00 | 0.00 | 32 | 848.5 |
| 20260503222236 | 63 | 238 | 0.0 | 200.0 | 0.00 | 0.00 | 0.00 | 32 | 797.8 |
| 20260503221735 | 63 | 249 | 0.0 | 200.0 | 0.00 | 0.00 | 0.00 | 32 | 824.9 |
| 20260503221234 | 63 | 232 | 0.0 | 200.0 | 0.00 | 0.00 | 0.00 | 31 | 859.0 |
| 20260503220733 | 63 | 241 | 0.0 | 200.0 | 0.00 | 0.00 | 0.00 | 31 | 844.4 |
| 20260503220232 | 63 | 217 | 0.0 | 200.0 | 0.00 | 0.00 | 0.00 | 32 | 828.8 |
| 20260503215731 | 63 | 266 | 0.0 | 200.0 | 0.00 | 0.00 | 0.00 | 31 | 873.1 |
| 20260503215230 | 63 | 278 | 0.0 | 200.0 | 0.00 | 0.00 | 0.00 | 30 | 864.4 |
| 20260503214213 | 62 | 296 | 0.0 | 200.0 | 0.00 | 0.00 | 0.00 | 31 | 835.3 |
| 20260503213713 | 62 | 208 | 0.0 | 200.0 | 0.00 | 0.00 | 0.00 | 31 | 795.3 |
| 20260503212707 | 63 | 235 | 0.0 | 200.0 | 0.00 | 0.00 | 0.00 | 29 | 836.3 |
| 20260503212206 | 63 | 236 | 0.0 | 200.0 | 0.00 | 0.00 | 0.00 | 29 | 827.4 |
| 20260503211706 | 63 | 242 | 0.0 | 200.0 | 0.00 | 0.00 | 0.00 | 30 | 808.2 |
| 20260503211205 | 63 | 192 | 0.0 | 200.0 | 0.00 | 0.00 | 0.00 | 30 | 794.9 |
| 20260503210702 | 63 | 276 | 0.0 | 200.0 | 0.00 | 0.00 | 0.00 | 29 | 830.0 |
| 20260503210202 | 63 | 233 | 0.0 | 200.0 | 0.00 | 0.00 | 0.00 | 30 | 805.3 |
| 20260503204631 | 63 | 128 | 0.0 | 200.0 | 0.00 | 0.00 | 0.00 | 29 | 736.5 |
| 20260503204131 | 63 | 232 | 0.0 | 200.0 | 0.00 | 0.00 | 0.00 | 32 | 778.0 |
| 20260503203631 | 63 | 102 | 0.0 | 200.0 | 0.00 | 0.00 | 0.00 | 31 | 699.3 |
| 20260503203131 | 63 | 327 | 0.0 | 200.0 | 0.00 | 0.00 | 0.00 | 34 | 753.6 |
| 20260503202630 | 63 | 198 | 0.0 | 200.0 | 0.00 | 0.00 | 0.00 | 31 | 773.8 |
| 20260503202130 | 63 | 248 | 0.0 | 200.0 | 0.00 | 0.00 | 0.00 | 31 | 813.7 |
| 20260503201113 | 63 | 194 | 0.0 | 200.0 | 0.00 | 0.00 | 0.00 | 33 | 792.4 |
| 20260503200613 | 63 | 232 | 0.0 | 200.0 | 0.00 | 0.00 | 0.00 | 30 | 792.2 |
| 20260503195607 | 63 | 210 | 0.0 | 200.0 | 0.00 | 0.00 | 0.00 | 31 | 788.6 |
| 20260503195107 | 63 | 242 | 0.0 | 200.0 | 0.00 | 0.00 | 0.00 | 31 | 803.6 |
| 20260503194607 | 63 | 13 | 0.0 | 200.0 | 0.00 | 0.00 | 0.00 | 31 | 750.0 |
| 20260503194108 | 63 | 241 | 0.0 | 200.0 | 0.00 | 0.00 | 0.00 | 32 | 830.7 |
| 20260503193607 | 63 | 217 | 0.0 | 200.0 | 0.00 | 0.00 | 0.00 | 32 | 817.5 |
| 20260503192551 | 63 | 223 | 0.0 | 200.0 | 0.00 | 0.00 | 0.00 | 33 | 818.3 |
| 20260503191536 | 63 | 223 | 0.0 | 200.0 | 0.00 | 0.00 | 0.00 | 34 | 786.8 |
| 20260503191035 | 63 | 275 | 0.0 | 200.0 | 0.00 | 0.00 | 0.00 | 34 | 758.2 |
| 20260503190029 | 62 | 257 | 0.0 | 200.0 | 0.00 | 0.00 | 0.00 | 36 | 810.1 |
| 20260503185527 | 62 | 228 | 0.0 | 200.0 | 0.00 | 0.00 | 0.00 | 33 | 805.6 |
| 20260503185026 | 63 | 142 | 0.0 | 200.0 | 0.00 | 0.00 | 0.00 | 33 | 780.9 |
| 20260503183513 | 62 | 205 | 0.0 | 200.0 | 0.00 | 0.00 | 0.00 | 32 | 800.5 |
| 20260503183012 | 62 | 238 | 0.0 | 200.0 | 0.00 | 0.00 | 0.00 | 33 | 865.5 |
| 20260503182512 | 62 | 275 | 0.0 | 200.0 | 0.00 | 0.00 | 0.00 | 36 | 867.1 |
| 20260503182010 | 61 | 218 | 0.0 | 200.0 | 0.00 | 0.00 | 0.00 | 33 | 783.4 |
| 20260503180953 | 62 | 242 | 0.0 | 200.0 | 0.00 | 0.00 | 0.00 | 33 | 816.7 |
| 20260503180451 | 62 | 227 | 0.0 | 200.0 | 0.00 | 0.00 | 0.00 | 33 | 791.5 |
| 20260503175950 | 62 | 262 | 0.0 | 200.0 | 0.00 | 0.00 | 0.00 | 30 | 753.9 |
| 20260503175449 | 61 | 137 | 0.0 | 200.0 | 0.00 | 0.00 | 0.00 | 32 | 762.4 |
| 20260503174948 | 60 | 201 | 0.0 | 200.0 | 0.00 | 0.00 | 0.00 | 34 | 793.0 |
| 20260503174447 | 60 | 207 | 0.0 | 200.0 | 0.00 | 0.00 | 0.00 | 32 | 782.0 |
| 20260503173946 | 61 | 187 | 0.0 | 200.0 | 0.00 | 0.00 | 0.00 | 33 | 764.5 |
| 20260503173445 | 61 | 248 | 0.0 | 200.0 | 0.00 | 0.00 | 0.00 | 34 | 853.9 |
| 20260503171923 | 60 | 198 | 0.0 | 200.0 | 0.00 | 0.00 | 0.00 | 33 | 753.3 |
| 20260503171421 | 59 | 209 | 0.0 | 200.0 | 0.00 | 0.00 | 0.00 | 35 | 800.0 |
| 20260503170921 | 60 | 152 | 0.0 | 200.0 | 0.00 | 0.00 | 0.00 | 32 | 793.4 |
| 20260503150810 | 54 | 203 | 0.0 | 200.0 | 0.00 | 0.00 | 0.00 | 42 | 721.5 |
| 20260503150311 | 53 | 17 | 0.0 | 200.0 | 0.00 | 0.00 | 0.00 | 41 | 649.5 |
| 20260503140236 | 50 | 201 | 0.0 | 200.0 | 0.00 | 0.00 | 0.00 | 48 | 727.7 |
| 20260503131125 | 48 | 241 | 0.0 | 200.0 | 0.00 | 0.00 | 0.00 | 53 | 792.6 |
| 20260503130624 | 48 | 71 | 0.0 | 200.0 | 0.00 | 0.00 | 0.00 | 52 | 759.4 |
| 20260503130122 | 48 | 277 | 0.0 | 200.0 | 0.00 | 0.00 | 0.00 | 54 | 785.7 |
| 20260503110517 | 44 | 232 | 0.0 | 200.0 | 0.00 | 0.00 | 0.00 | 65 | 817.2 |
| 20260503090408 | 44 | 227 | 0.0 | 200.0 | 0.00 | 0.00 | 0.00 | 67 | 829.8 |
| 20260503081334 | 45 | 234 | 0.0 | 200.0 | 0.00 | 0.00 | 0.00 | 67 | 812.3 |
| 20260503080834 | 45 | 234 | 0.0 | 200.0 | 0.00 | 0.00 | 0.00 | 67 | 830.0 |
| 20260503080334 | 45 | 239 | 0.0 | 200.0 | 0.00 | 0.00 | 0.00 | 67 | 858.6 |
| 20260503072823 | 46 | 272 | 0.0 | 200.0 | 0.00 | 0.00 | 0.00 | 65 | 846.4 |
| 20260503072323 | 46 | 221 | 0.0 | 200.0 | 0.00 | 0.00 | 0.00 | 65 | 803.9 |
| 20260503071823 | 46 | 222 | 0.0 | 200.0 | 0.00 | 0.00 | 0.00 | 65 | 824.6 |
| 20260503071323 | 46 | 215 | 0.0 | 200.0 | 0.00 | 0.00 | 0.00 | 65 | 833.2 |
| 20260503070822 | 46 | 229 | 0.0 | 200.0 | 0.00 | 0.00 | 0.00 | 64 | 831.2 |
| 20260503070321 | 46 | 252 | 0.0 | 200.0 | 0.00 | 0.00 | 0.00 | 65 | 808.3 |